Weather History for Fort Lauderdale, FL

Change the Weather History Date:

Tuesday, December 4, 2012

  Actual Average Record
Temperature  
Mean Temperature 74 °F -  
Max Temperature 78 °F 78 °F 87 °F (1983)
Min Temperature 70 °F 62 °F 33 °F (1997)
Cooling Degree Days 9    
Growing Degree Days 24 (Base 50)    
Moisture  
Dew Point 57 °F    
Average Humidity 58    
Maximum Humidity 78    
Minimum Humidity 20    
Precipitation  
Precipitation 0.03 in - - ()
Sea Level Pressure  
Sea Level Pressure 30.19 in    
Wind  
Wind Speed 11 mph (ENE)    
Max Wind Speed 15 mph    
Max Gust Speed 22 mph    
Visibility 10 miles    
Events Rain    
Averages and records for this station are not official NWS values.
T = Trace of Precipitation, MM = Missing Value Source: NWS Daily Summary

Daily Weather History Graph

Daily Weather History Graph

Search for Another Location

Airport:

Trip Planner

Search our weather history database for the weather conditions in past years. The results will help you decide how hot, cold, wet, or windy it might be!

Date:

Astronomy

Dec. 04, 2012 Rise Set
Actual Time 6:53 AM EST 5:28 PM EST
Civil Twilight 6:28 AM EST 5:53 PM EST
Nautical Twilight 5:59 AM EST 6:22 PM EST
Astronomical Twilight 5:31 AM EST 6:50 PM EST
Moon 10:52 PM EST (12/4) 11:05 AM EST (12/4)
Length of Visible Light 11h 25m
Length of Day
10h 35m
Waning Gibbous, 69% of the Moon is Illuminated
Dec 4
Waning Gibbous
Dec 6
Last Quarter
Dec 13
New
Dec 20
First Quarter
Dec 28
Full

Hourly Weather History & Observations

Time (EST) Temp. Dew Point Humidity Pressure Visibility Wind Dir Wind Speed Gust Speed Precip Events Conditions
12:53 AM 71.6 °F 55.4 °F 57% 30.20 in 10.0 mi ENE 12.7 mph - N/A   Scattered Clouds
1:53 AM 72.0 °F 57.9 °F 61% 30.19 in 10.0 mi ENE 12.7 mph - N/A   Scattered Clouds
2:53 AM 72.0 °F 59.0 °F 64% 30.19 in 10.0 mi ENE 9.2 mph - N/A   Scattered Clouds
3:53 AM 72.0 °F 59.0 °F 64% 30.18 in 10.0 mi ENE 10.4 mph - N/A   Partly Cloudy
4:53 AM 73.0 °F 60.1 °F 64% 30.18 in 10.0 mi ENE 8.1 mph - N/A   Mostly Cloudy
5:53 AM 73.4 °F 60.8 °F 65% 30.18 in 10.0 mi ENE 10.4 mph 16.1 mph N/A   Overcast
6:53 AM 73.0 °F 60.1 °F 64% 30.20 in 10.0 mi ENE 9.2 mph - N/A   Scattered Clouds
7:53 AM 73.9 °F 57.9 °F 57% 30.21 in 10.0 mi ENE 13.8 mph - N/A   Scattered Clouds
8:53 AM 75.9 °F 59.0 °F 56% 30.22 in 10.0 mi ENE 12.7 mph 20.7 mph N/A   Scattered Clouds
9:53 AM 75.0 °F 64.9 °F 71% 30.24 in 10.0 mi ENE 13.8 mph 21.9 mph 0.01 in   Scattered Clouds
10:53 AM 72.0 °F 64.9 °F 78% 30.24 in 10.0 mi East 10.4 mph - 0.01 in Rain Light Rain
11:53 AM 75.0 °F 60.1 °F 60% 30.23 in 10.0 mi ENE 13.8 mph - 0.00 in   Mostly Cloudy
12:53 PM 75.9 °F 55.9 °F 50% 30.20 in 10.0 mi ENE 15.0 mph 21.9 mph N/A   Scattered Clouds
1:53 PM 77.0 °F 55.9 °F 48% 30.18 in 10.0 mi East 15.0 mph - N/A   Scattered Clouds
2:53 PM 78.1 °F 55.0 °F 45% 30.17 in 10.0 mi East 12.7 mph - N/A   Scattered Clouds
3:53 PM 75.9 °F 57.0 °F 52% 30.17 in 10.0 mi NE 9.2 mph - N/A   Scattered Clouds
4:53 PM 75.0 °F 59.0 °F 57% 30.17 in 10.0 mi NE 6.9 mph - N/A   Overcast
5:53 PM 75.0 °F 57.9 °F 55% 30.18 in 10.0 mi ENE 6.9 mph - N/A   Mostly Cloudy
6:53 PM 73.9 °F 57.9 °F 57% 30.19 in 10.0 mi ENE 5.8 mph - N/A   Overcast
7:53 PM 73.0 °F 61.0 °F 66% 30.19 in 10.0 mi ESE 12.7 mph - 0.00 in Rain Light Rain
8:53 PM 70.0 °F 63.0 °F 78% 30.19 in 10.0 mi ESE 3.5 mph - 0.01 in Rain Light Rain
9:53 PM 71.1 °F 62.1 °F 73% 30.18 in 10.0 mi ESE 5.8 mph - 0.00 in Rain Light Rain
10:53 PM 71.1 °F 30.0 °F 22% 30.17 in 10.0 mi SE 4.6 mph - 0.00 in Rain Light Rain
11:53 PM 73.0 °F 28.9 °F 20% 30.16 in 10.0 mi ENE 9.2 mph - 0.00 in   Overcast